Regional Weather Roundup
Issued by NWS

Home | Current Version | Previous Version | Graphics & Text | Print | Product List | Glossary On
Versions: 1 2 3 4 5 6 7 8 9 10 11 12 13 14 15 16 17 18 19 20 21 22 23 24 25 26 27 28
000
ASUS45 KSLC 241510
RWRUT

UTAH REGIONAL WEATHER ROUNDUP
NATIONAL WEATHER SERVICE SALT LAKE CITY UT
900 AM MDT THU APR 24 2014

UTZ001>011-023>025-241600-

NORTHERN UTAH

CITY           SKY/WX    TMP DP  RH WIND       PRES   REMARKS
HILL AFB       PTSUNNY   44  22  42 E10       30.06R
LOGAN          SUNNY     41  30  65 NE3       30.05F
OGDEN          MOSUNNY   46  22  38 S10       30.05S
PROVO AIRPORT  PTSUNNY   43  21  42 CALM      30.12R
SALT LAKE CITY PTSUNNY   47  23  38 SE14G24   30.06R
VERNAL         PTSUNNY   40  12  32 CALM      30.14F
WENDOVER       PTSUNNY   45  19  36 E5        30.04S
HEBER CITY     PTSUNNY   32  23  69 CALM      30.12F
WEST JORDAN    MOSUNNY   46  25  42 S16       30.08R

$$

UTZ012>022-026-027-241600-

SOUTHERN UTAH

CITY           SKY/WX    TMP DP  RH WIND       PRES   REMARKS
BRYCE CANYON   MOSUNNY   39  14  36 CALM      30.16F
CEDAR CITY     SUNNY     43  13  29 CALM      30.07F
MILFORD        SUNNY     41  17  38 S10       30.08R
MOAB/CYNLANDS  SUNNY     48  11  22 CALM      30.13R
PRICE          PTSUNNY   40  11  30 CALM      30.13R
ST GEORGE      PTSUNNY   57  16  19 SE9       30.07F
KANAB            N/A     48  16  27 NW10      30.14F

$$

REGIONAL REPORTS     COLORADO/ARIZONA

CITY           SKY/WX    TMP DP  RH WIND       PRES   REMARKS
CRAIG, CO      SUNNY     36  22  56 NE5       30.15S WCI  32
GRAND JUNCTION MOSUNNY   44  13  28 SE12      30.16S
RIFLE          MOSUNNY   38  18  44 CALM      30.18S
MONTROSE       MOSUNNY   43  14  31 SE5       30.19S
CORTEZ         SUNNY     43  12  28 CALM      30.15S
PAGE, AZ       MOSUNNY   54  14  20 E3        30.12R
GRAND CANYON   MOSUNNY   51  12  21 E7        30.15S
KINGMAN        SUNNY     61   9  12 NE3       30.02R
FLAGSTAFF      MOSUNNY   43  13  29 CALM      30.17R

$$

REGIONAL REPORTS    NEVADA/IDAHO/WYOMING

CITY           SKY/WX    TMP DP  RH WIND       PRES   REMARKS
LAS VEGAS, NV  MOSUNNY   64  17  16 SW3       29.95R
ELY            CLOUDY    42  18  37 E5        30.08S
ELKO           PTSUNNY   41  27  57 CALM      30.02S
POCATELLO, ID  MOSUNNY   50  23  34 S21G30    29.97F
BURLEY         CLOUDY    48  32  53 S18       29.98R
EVANSTON, WY   PTSUNNY   35  18  49 SW12      30.08S WCI  27
ROCK SPRINGS   SUNNY     40  16  37 W9        30.08F WCI  34

$$



USA.gov is the U.S. government's official web portal to all federal, state and local government web resources and services.